Regional Weather Roundup
Issued by NWS State College, PA

Home | Current Version | Previous Version | Graphics & Text | Print | Product List | Glossary Off
Versions: 1 2 3 4 5 6 7 8 9 10 11 12 13 14 15 16 17 18 19 20 21 22 23 24 25 26 27 28 29 30 31 32 33 34 35 36 37 38 39 40 41 42 43 44 45 46 47 48 49 50

000
ASUS41 KCTP 251503
RWRCTP

REGIONAL WEATHER ROUNDUP
NATIONAL WEATHER SERVICE STATE COLLEGE PA
1100 AM EDT MON SEP 25 2017

Note: "fair" indicates few or no clouds below 12,000 feet with no
significant weather and/or obstructions to visibility.

* = STATION THAT DOES NOT REPORT PRECIPITATION /E.G. RAIN...SNOW...ETC/
    THUNDER OR FOG.

PAZ002>004-007>009-013>016-020>023-029>032-251600-
WESTERN PENNSYLVANIA

CITY           SKY/WX    TMP DP  RH WIND       PRES   REMARKS
ERIE           SUNNY     82  67  60 S8        30.09F
MEADVILLE      SUNNY     78  66  66 VRB3      30.14F
FRANKLIN*      SUNNY     78  68  71 VRB5      30.16S
NEW CASTLE     FAIR      76  68  76 CALM      30.13F
BEAVER COUNTY  SUNNY     79  64  61 E3        30.13F
BUTLER*        SUNNY     79  66  64 CALM      30.14S
PITTSBURGH INT PTSUNNY   79  66  64 CALM      30.12F
PITTSBURGH     SUNNY     78  63  59 CALM      30.12S
INDIANA*       SUNNY     77  68  73 CALM      30.15F
LATROBE        MOSUNNY   75  68  78 CALM      30.13F
WASHINGTON CO* SUNNY     79  66  65 E3        30.13S
$$

PAZ004>006-010>012-017>019-024>028-033>037-041-042-045-046-049>053-251600-
CENTRAL PENNSYLVANIA

CITY           SKY/WX    TMP DP  RH WIND       PRES   REMARKS
BRADFORD       SUNNY     78  64  61 SE9       30.18F
DUBOIS         MOSUNNY   78  64  61 E7        30.15F
CLEARFIELD     MOSUNNY   78  67  68 NE6       30.15F
JOHNSTOWN      SUNNY     77  65  66 VRB3      30.17S
ALTOONA        SUNNY     78  68  71 E3        30.15S
STATE COLLEGE  SUNNY     75  66  73 CALM      30.14F
WILLIAMSPORT   SUNNY     79  68  69 VRB3      30.10F
SELINSGROVE    SUNNY     80  70  71 VRB3      30.10F
FT INDIANTOWN  MOSUNNY   83  69  63 E5        30.09F
CAPITAL CITY   SUNNY     83  67  58 VRB3      30.08F
HARRISBURG     MOSUNNY   83  71  67 SW3       30.07F
YORK           SUNNY     81  69  67 E5        30.08F
$$

PAZ038>040-043-044-047-048-054-055-060>062-067>071-251600-
EASTERN PENNSYLVANIA

CITY           SKY/WX    TMP DP  RH WIND       PRES   REMARKS
SCRANTON       SUNNY     79  66  64 CALM      30.13S
MOUNT POCONO   SUNNY     77  67  71 E8        30.17S
ALLENTOWN      SUNNY     82  68  62 E7        30.09F
QUAKERTOWN*    SUNNY     82  70  65 NE5       30.09F
READING        SUNNY     83  72  69 NW6       30.07F
LANCASTER      SUNNY     82  70  66 E5        30.08F
COATESVILLE    SUNNY     81  68  65 CALM      30.10F
POTTSTOWN      SUNNY     81  68  64 VRB3      30.09F
BLUE BELL      SUNNY     81  68  65 CALM      30.08F
DOYLESTOWN     SUNNY     83  68  60 CALM      30.07F
WILLOW GROVE   NOT AVBL
NORTH PHILA    SUNNY     85  67  54 CALM      30.08S
PHILADELPHIA   MOSUNNY   82  66  58 CALM      30.06F
$$




USA.gov is the U.S. government's official web portal to all federal, state and local government web resources and services.